Starlink 30553

operational
NORAD ID: 58056 Int'l Des: 2023-158 Owner: SPXS Country: US Constellation: starlink
LEOCIRCULAR

Über Starlink 30553

Beschreibung wird geladen...

Live-Position

3D-Globus wird geladen...

Nächste Überflüge

Höhenverlauf

Altitude vs Time

uPlot chart will show altitude changes over time

Zweizeiliger Elementsatz

1 58056U 23158F 25259.47222469 -.00001315 00000-0 -82311-4 0 9993
2 58056 43.0022 257.0570 0001284 278.9579 81.1118 15.02520032107328
Epoch: 16. Sept. 2025 • Age: 34 hours

Aktueller Status

Höhe 558.7 km
Geschwindigkeit 7.58 km/s
Subsatellitenpunkt 11.95°N, 95.83°E
Startdatum 13. Okt. 2023
Alter 1.9 years
Typ internet

Technische Details

Klassifizierung Payload
Masse 730.00 kg
Trockenmasse 700.00 kg
Gesamtmasse 730.00 kg
Länge 0.30 m
Durchmesser 4.10 m
Spannweite 29.00 m
Form Box + pan
Hersteller SPXS
Bus-Typ Starlink V2M
Phasenstatus In Orbit
Besitzer/Staat SPXS/US

Große Konstellationen

Loading constellations...